DLH1331 GMMN-EDDF

Flight info

Callsign DLH1331
Flight time 3h 7m
Altitude 38000
Route TOLSI UG5 KORIS L27 MAR DCT ALCOL N871 TOPTU DCT TOU DCT GAI DCT MEN DCT NINUN DCT LATAM DCT ETREK DCT LTP DCT SOPLO DCT OMASI DCT KINNI DCT SOSAL DCT KORED DCT BERSU N871 DITON/N0428F390 DCT LADOL/N0423F380 T163 EMPAX EMPAX5B
Aircraft A20N/M-SDE2E3FGIJ1LORWXYZ/HB1

Departure

Time 2026-05-06 05:39
Airport Mohammed V International Airport (GMMN)

Arrival

Time 2026-05-06 08:46
Airport Frankfurt Main Airport (EDDF)
Time Latitude Longitude Altitude Speed Heading
2026-05-06 05:05 33.37032 -7.58154 654 ft 0 kts 76°
2026-05-06 05:30 33.37031 -7.58158 654 ft 5 kts 76°
2026-05-06 05:30 33.37021 -7.58204 658 ft 5 kts 73°
2026-05-06 05:31 33.37013 -7.58229 657 ft 2 kts 53°
2026-05-06 05:31 33.37005 -7.58238 658 ft 2 kts
2026-05-06 05:31 33.36994 -7.58236 658 ft 2 kts 336°
2026-05-06 05:31 33.36984 -7.58230 658 ft 2 kts 331°
2026-05-06 05:32 33.36976 -7.58225 655 ft 0 kts 330°
2026-05-06 05:34 33.36978 -7.58226 656 ft 2 kts 330°
2026-05-06 05:34 33.37019 -7.58244 657 ft 11 kts 343°
2026-05-06 05:34 33.37118 -7.58276 653 ft 18 kts 345°
2026-05-06 05:35 33.37250 -7.58322 652 ft 21 kts 343°
2026-05-06 05:35 33.37398 -7.58374 651 ft 23 kts 345°
2026-05-06 05:35 33.37558 -7.58425 650 ft 25 kts 344°
2026-05-06 05:35 33.37716 -7.58462 649 ft 21 kts 342°
2026-05-06 05:36 33.37830 -7.58537 648 ft 20 kts 307°
2026-05-06 05:36 33.37908 -7.58676 647 ft 21 kts 283°
2026-05-06 05:36 33.37905 -7.58817 649 ft 15 kts 311°
2026-05-06 05:36 33.38009 -7.58859 646 ft 17 kts 341°
2026-05-06 05:37 33.38130 -7.58902 647 ft 19 kts 345°
2026-05-06 05:37 33.38266 -7.58946 647 ft 21 kts 344°
2026-05-06 05:37 33.38404 -7.58996 645 ft 19 kts 343°
2026-05-06 05:37 33.38449 -7.59103 645 ft 16 kts 254°
2026-05-06 05:38 33.38417 -7.59240 642 ft 18 kts 255°
2026-05-06 05:38 33.38371 -7.59337 640 ft 12 kts 184°
2026-05-06 05:38 33.38287 -7.59310 641 ft 15 kts 163°
2026-05-06 05:38 33.38011 -7.59215 643 ft 75 kts 164°
2026-05-06 05:39 33.37310 -7.58975 649 ft 131 kts 164°
2026-05-06 05:39 33.36303 -7.58641 835 ft 155 kts 164°
2026-05-06 05:39 33.35318 -7.58337 1492 ft 148 kts 164°
2026-05-06 05:39 33.34256 -7.57982 1843 ft 168 kts 163°
2026-05-06 05:40 33.33105 -7.57555 2447 ft 177 kts 153°
2026-05-06 05:40 33.32286 -7.56457 2977 ft 188 kts 103°
2026-05-06 05:40 33.32264 -7.54843 3522 ft 204 kts 79°
2026-05-06 05:40 33.32569 -7.53083 3953 ft 229 kts 75°
2026-05-06 05:41 33.32990 -7.51139 4489 ft 254 kts 74°
2026-05-06 05:41 33.33524 -7.49037 5094 ft 273 kts 63°
2026-05-06 05:41 33.34711 -7.47257 5943 ft 279 kts 35°
2026-05-06 05:41 33.36464 -7.46292 6815 ft 281 kts
2026-05-06 05:42 33.38393 -7.45869 7772 ft 283 kts
2026-05-06 05:42 33.40353 -7.45506 8727 ft 287 kts
2026-05-06 05:42 33.42347 -7.45127 9644 ft 293 kts
2026-05-06 05:42 33.44349 -7.44722 10425 ft 303 kts
2026-05-06 05:43 33.46505 -7.44270 10790 ft 327 kts
2026-05-06 05:43 33.48815 -7.43772 11192 ft 346 kts
2026-05-06 05:43 33.51202 -7.43249 11995 ft 350 kts
2026-05-06 05:43 33.53613 -7.42717 12874 ft 354 kts
2026-05-06 05:44 33.56050 -7.42181 13723 ft 358 kts
2026-05-06 05:44 33.58518 -7.41658 14468 ft 362 kts
2026-05-06 05:44 33.61023 -7.41175 15177 ft 367 kts
2026-05-06 05:44 33.63565 -7.40698 15887 ft 372 kts
2026-05-06 05:45 33.66137 -7.40215 16592 ft 377 kts
2026-05-06 05:45 33.68743 -7.39719 17273 ft 382 kts
2026-05-06 05:45 33.71380 -7.39214 17968 ft 387 kts
2026-05-06 05:45 33.73152 -7.38873 18390 ft 390 kts
2026-05-06 05:46 33.76763 -7.38177 19201 ft 395 kts
2026-05-06 05:46 33.78567 -7.37830 19614 ft 398 kts
2026-05-06 05:46 33.81310 -7.37301 20230 ft 401 kts
2026-05-06 05:46 33.84078 -7.36767 20831 ft 405 kts
2026-05-06 05:47 33.86872 -7.36228 21431 ft 409 kts
2026-05-06 05:47 33.89692 -7.35685 22017 ft 412 kts
2026-05-06 05:47 33.92538 -7.35135 22614 ft 416 kts
2026-05-06 05:47 33.95409 -7.34580 23202 ft 420 kts
2026-05-06 05:48 33.98304 -7.34020 23743 ft 423 kts
2026-05-06 05:48 34.01226 -7.33455 24223 ft 427 kts
2026-05-06 05:48 34.04167 -7.32885 24701 ft 430 kts
2026-05-06 05:48 34.07138 -7.32310 25152 ft 434 kts
2026-05-06 05:49 34.10115 -7.31607 25609 ft 440 kts 11°
2026-05-06 05:49 34.13041 -7.30452 26052 ft 447 kts 18°
2026-05-06 05:49 34.15879 -7.28843 26474 ft 453 kts 24°
2026-05-06 05:49 34.18690 -7.27096 26898 ft 456 kts 24°
2026-05-06 05:50 34.21524 -7.25352 27306 ft 459 kts 24°
2026-05-06 05:50 34.24379 -7.23597 27701 ft 463 kts 24°
2026-05-06 05:50 34.27259 -7.21825 28082 ft 466 kts 24°
2026-05-06 05:50 34.30158 -7.20038 28463 ft 469 kts 24°
2026-05-06 05:51 34.33069 -7.18241 28824 ft 472 kts 24°
2026-05-06 05:51 34.36014 -7.16420 29171 ft 476 kts 24°
2026-05-06 05:51 34.38972 -7.14590 29522 ft 479 kts 24°
2026-05-06 05:51 34.41948 -7.12748 29874 ft 482 kts 24°
2026-05-06 05:52 34.44940 -7.10893 30184 ft 485 kts 24°
2026-05-06 05:52 34.47949 -7.09027 30503 ft 487 kts 24°
2026-05-06 05:52 34.50972 -7.07150 30809 ft 489 kts 24°
2026-05-06 05:52 34.54008 -7.05264 31127 ft 492 kts 24°
2026-05-06 05:53 34.57054 -7.03369 31510 ft 492 kts 24°
2026-05-06 05:53 34.60100 -7.01473 31921 ft 491 kts 24°
2026-05-06 05:53 34.63139 -6.99595 32339 ft 490 kts 23°
2026-05-06 05:53 34.66182 -6.97733 32738 ft 490 kts 23°
2026-05-06 05:54 34.69216 -6.95882 33118 ft 489 kts 23°
2026-05-06 05:54 34.72262 -6.94019 33514 ft 488 kts 23°
2026-05-06 05:54 34.75297 -6.92160 33885 ft 488 kts 23°
2026-05-06 05:54 34.78323 -6.90303 34212 ft 487 kts 23°
2026-05-06 05:55 34.81355 -6.88440 34473 ft 488 kts 22°
2026-05-06 05:55 34.84383 -6.86577 34727 ft 489 kts 22°
2026-05-06 05:55 34.87424 -6.84705 34982 ft 489 kts 22°
2026-05-06 05:55 34.90462 -6.82833 35238 ft 490 kts 22°
2026-05-06 05:56 34.93464 -6.80982 35486 ft 490 kts 22°
2026-05-06 05:56 34.96506 -6.79104 35725 ft 491 kts 22°
2026-05-06 05:56 34.99552 -6.77222 35974 ft 491 kts 22°
2026-05-06 05:56 35.02600 -6.75338 36205 ft 491 kts 22°
2026-05-06 05:57 35.05647 -6.73452 36436 ft 491 kts 22°
2026-05-06 05:57 35.08735 -6.71540 36681 ft 491 kts 22°
2026-05-06 05:57 35.11744 -6.69674 36907 ft 491 kts 22°
2026-05-06 05:57 35.14791 -6.67784 37129 ft 491 kts 22°
2026-05-06 05:58 35.17841 -6.65890 37355 ft 492 kts 22°
2026-05-06 05:58 35.20891 -6.63995 37555 ft 491 kts 22°
2026-05-06 05:58 35.23940 -6.62099 37766 ft 491 kts 22°
2026-05-06 05:58 35.26984 -6.60204 37952 ft 492 kts 22°
2026-05-06 05:59 35.33072 -6.56409 37961 ft 490 kts 22°
2026-05-06 05:59 35.39153 -6.52613 37960 ft 490 kts 22°
2026-05-06 06:00 35.45229 -6.48813 37960 ft 490 kts 22°
2026-05-06 06:00 35.51269 -6.44898 37959 ft 491 kts 23°
2026-05-06 06:01 35.57299 -6.40939 37959 ft 492 kts 23°
2026-05-06 06:01 35.63342 -6.36983 37958 ft 492 kts 23°
2026-05-06 06:02 35.69390 -6.33024 37958 ft 493 kts 23°
2026-05-06 06:02 35.75443 -6.29057 37963 ft 493 kts 23°
2026-05-06 06:03 35.81489 -6.25115 37949 ft 490 kts 23°
2026-05-06 06:03 35.87532 -6.21195 37949 ft 491 kts 22°
2026-05-06 06:04 35.93581 -6.17300 37956 ft 490 kts 22°
2026-05-06 06:04 35.99621 -6.13390 37967 ft 490 kts 22°
2026-05-06 06:05 36.05664 -6.09465 37974 ft 491 kts 22°
2026-05-06 06:05 36.11709 -6.05531 37969 ft 491 kts 22°
2026-05-06 06:06 36.17748 -6.01595 37970 ft 491 kts 22°
2026-05-06 06:06 36.23611 -5.97189 37972 ft 497 kts 33°
2026-05-06 06:07 36.28755 -5.91499 37967 ft 501 kts 43°
2026-05-06 06:07 36.33660 -5.85358 37968 ft 501 kts 42°
2026-05-06 06:08 36.38573 -5.79218 37965 ft 501 kts 42°
2026-05-06 06:08 36.43476 -5.73060 37970 ft 501 kts 42°
2026-05-06 06:09 36.48373 -5.66892 37974 ft 501 kts 42°
2026-05-06 06:09 36.53268 -5.60714 37976 ft 502 kts 42°
2026-05-06 06:10 36.58159 -5.54529 37970 ft 501 kts 42°
2026-05-06 06:10 36.63043 -5.48341 37971 ft 501 kts 42°
2026-05-06 06:11 36.67921 -5.42149 37971 ft 501 kts 42°
2026-05-06 06:11 36.72801 -5.35941 37967 ft 501 kts 43°
2026-05-06 06:12 36.77664 -5.29743 37969 ft 500 kts 42°
2026-05-06 06:12 36.82532 -5.23529 37970 ft 500 kts 42°
2026-05-06 06:13 36.87388 -5.17317 37970 ft 500 kts 42°
2026-05-06 06:13 36.92244 -5.11093 37970 ft 500 kts 42°
2026-05-06 06:14 36.97098 -5.04860 37967 ft 500 kts 42°
2026-05-06 06:14 37.01965 -4.98638 37965 ft 499 kts 39°
2026-05-06 06:15 37.07435 -4.93457 37961 ft 490 kts 25°
2026-05-06 06:15 37.13528 -4.89851 37960 ft 482 kts 16°
2026-05-06 06:16 37.19721 -4.86617 37966 ft 483 kts 17°
2026-05-06 06:16 37.25876 -4.83390 37966 ft 482 kts 17°
2026-05-06 06:17 37.32071 -4.80145 37964 ft 482 kts 17°
2026-05-06 06:17 37.38260 -4.76900 37959 ft 482 kts 17°
2026-05-06 06:18 37.44451 -4.73648 37959 ft 482 kts 17°
2026-05-06 06:18 37.50643 -4.70390 37966 ft 482 kts 17°
2026-05-06 06:19 37.56837 -4.67125 37960 ft 482 kts 17°
2026-05-06 06:19 37.63025 -4.63857 37962 ft 482 kts 17°
2026-05-06 06:20 37.69218 -4.60580 37969 ft 482 kts 17°
2026-05-06 06:20 37.75410 -4.57299 37972 ft 482 kts 17°
2026-05-06 06:21 37.81602 -4.54011 37962 ft 483 kts 17°
2026-05-06 06:21 37.87790 -4.50720 37965 ft 482 kts 17°
2026-05-06 06:22 37.93973 -4.47424 37966 ft 482 kts 17°
2026-05-06 06:22 38.00153 -4.44124 37962 ft 482 kts 17°
2026-05-06 06:23 38.06326 -4.40822 37969 ft 481 kts 17°
2026-05-06 06:23 38.12497 -4.37515 37966 ft 481 kts 17°
2026-05-06 06:24 38.18610 -4.34232 37968 ft 481 kts 17°
2026-05-06 06:24 38.24775 -4.30915 37967 ft 480 kts 17°
2026-05-06 06:25 38.30918 -4.27604 37967 ft 479 kts 17°
2026-05-06 06:26 38.40111 -4.22637 37966 ft 478 kts 17°
2026-05-06 06:26 38.46228 -4.19325 37958 ft 477 kts 17°
2026-05-06 06:27 38.52337 -4.16012 37958 ft 477 kts 17°
2026-05-06 06:27 38.58437 -4.12696 37965 ft 476 kts 17°
2026-05-06 06:28 38.64526 -4.09381 37957 ft 475 kts 17°
2026-05-06 06:28 38.70607 -4.06064 37952 ft 475 kts 17°
2026-05-06 06:29 38.76681 -4.02745 37954 ft 474 kts 17°
2026-05-06 06:29 38.82751 -3.99424 37960 ft 474 kts 17°
2026-05-06 06:30 38.88821 -3.96097 37959 ft 474 kts 17°
2026-05-06 06:30 38.94883 -3.92768 37966 ft 474 kts 17°
2026-05-06 06:31 39.00953 -3.89428 37964 ft 474 kts 17°
2026-05-06 06:31 39.07021 -3.86082 37967 ft 474 kts 17°
2026-05-06 06:32 39.13089 -3.82729 37966 ft 475 kts 18°
2026-05-06 06:32 39.19158 -3.79370 37970 ft 475 kts 18°
2026-05-06 06:33 39.25225 -3.76006 37974 ft 475 kts 18°
2026-05-06 06:33 39.30282 -3.73197 37979 ft 476 kts 18°
2026-05-06 06:34 39.36364 -3.69813 37979 ft 476 kts 18°
2026-05-06 06:34 39.42453 -3.66418 37985 ft 476 kts 18°
2026-05-06 06:35 39.48538 -3.63018 37985 ft 476 kts 18°
2026-05-06 06:35 39.54621 -3.59614 37983 ft 476 kts 18°
2026-05-06 06:36 39.60700 -3.56204 37982 ft 476 kts 18°
2026-05-06 06:36 39.66781 -3.52783 37981 ft 476 kts 18°
2026-05-06 06:37 39.72854 -3.49359 37980 ft 476 kts 18°
2026-05-06 06:37 39.78846 -3.45656 37978 ft 480 kts 25°
2026-05-06 06:38 39.84473 -3.40899 37982 ft 482 kts 28°
2026-05-06 06:38 39.90082 -3.36102 37980 ft 482 kts 28°
2026-05-06 06:39 39.95684 -3.31293 37980 ft 482 kts 29°
2026-05-06 06:39 40.01240 -3.26504 37978 ft 482 kts 29°
2026-05-06 06:40 40.06832 -3.21674 37983 ft 482 kts 29°
2026-05-06 06:40 40.12416 -3.16839 37982 ft 481 kts 29°
2026-05-06 06:41 40.17992 -3.12002 37987 ft 481 kts 29°
2026-05-06 06:41 40.23564 -3.07159 37980 ft 481 kts 29°
2026-05-06 06:42 40.29137 -3.02305 37982 ft 481 kts 29°
2026-05-06 06:42 40.34704 -2.97445 37987 ft 481 kts 29°
2026-05-06 06:43 40.40264 -2.92581 37988 ft 480 kts 29°
2026-05-06 06:43 40.45818 -2.87711 37988 ft 480 kts 29°
2026-05-06 06:44 40.51368 -2.82837 37996 ft 480 kts 29°
2026-05-06 06:44 40.56921 -2.77950 37982 ft 480 kts 29°
2026-05-06 06:45 40.62461 -2.73063 38001 ft 480 kts 29°
2026-05-06 06:45 40.67967 -2.68196 38002 ft 479 kts 29°
2026-05-06 06:46 40.73501 -2.63297 38001 ft 479 kts 30°
2026-05-06 06:46 40.79035 -2.58387 38001 ft 480 kts 30°
2026-05-06 06:47 40.84576 -2.53460 38008 ft 480 kts 30°
2026-05-06 06:47 40.90110 -2.48530 38014 ft 480 kts 30°
2026-05-06 06:48 40.95649 -2.43585 38016 ft 480 kts 30°
2026-05-06 06:48 41.01189 -2.38627 38022 ft 481 kts 30°
2026-05-06 06:49 41.06484 -2.33169 38019 ft 483 kts 35°
2026-05-06 06:49 41.11742 -2.27605 38024 ft 483 kts 35°
2026-05-06 06:50 41.16986 -2.22043 38034 ft 483 kts 35°
2026-05-06 06:50 41.22237 -2.16451 38034 ft 483 kts 35°
2026-05-06 06:51 41.27477 -2.10856 38035 ft 483 kts 35°
2026-05-06 06:51 41.32711 -2.05256 38039 ft 483 kts 35°
2026-05-06 06:52 41.37941 -1.99647 38037 ft 483 kts 35°
2026-05-06 06:52 41.43170 -1.94029 38032 ft 482 kts 35°
2026-05-06 06:53 41.48353 -1.88448 38032 ft 482 kts 35°
2026-05-06 06:53 41.53569 -1.82818 38025 ft 482 kts 35°
2026-05-06 06:54 41.58779 -1.77184 38024 ft 482 kts 36°
2026-05-06 06:54 41.63988 -1.71540 38023 ft 482 kts 36°
2026-05-06 06:55 41.69192 -1.65888 38021 ft 482 kts 36°
2026-05-06 06:55 41.74394 -1.60225 38015 ft 482 kts 36°
2026-05-06 06:56 41.79594 -1.54554 38018 ft 482 kts 36°
2026-05-06 06:56 41.84791 -1.48872 38011 ft 482 kts 36°
2026-05-06 06:57 41.89984 -1.43183 38012 ft 482 kts 36°
2026-05-06 06:57 41.95173 -1.37486 38011 ft 482 kts 36°
2026-05-06 06:58 42.00365 -1.31774 38018 ft 483 kts 36°
2026-05-06 06:58 42.05559 -1.26046 38010 ft 483 kts 36°
2026-05-06 06:59 42.10756 -1.20306 38016 ft 483 kts 36°
2026-05-06 06:59 42.15912 -1.14596 38015 ft 483 kts 36°
2026-05-06 07:00 42.21107 -1.08829 38017 ft 484 kts 36°
2026-05-06 07:00 42.26306 -1.03047 38017 ft 484 kts 37°
2026-05-06 07:01 42.31498 -0.97260 38015 ft 484 kts 37°
2026-05-06 07:01 42.36692 -0.91459 38011 ft 484 kts 37°
2026-05-06 07:02 42.41818 -0.85536 38013 ft 486 kts 42°
2026-05-06 07:02 42.46249 -0.78606 38002 ft 488 kts 51°
2026-05-06 07:03 42.50387 -0.71327 38002 ft 488 kts 50°
2026-05-06 07:03 42.54536 -0.64045 38003 ft 488 kts 51°
2026-05-06 07:04 42.58668 -0.56753 38000 ft 488 kts 51°
2026-05-06 07:04 42.62794 -0.49444 37998 ft 487 kts 51°
2026-05-06 07:05 42.66914 -0.42129 37991 ft 487 kts 51°
2026-05-06 07:05 42.71025 -0.34810 37982 ft 487 kts 51°
2026-05-06 07:06 42.75125 -0.27494 37978 ft 487 kts 51°
2026-05-06 07:06 42.79224 -0.20164 37979 ft 486 kts 51°
2026-05-06 07:07 42.83400 -0.13019 37966 ft 484 kts 49°
2026-05-06 07:07 42.87707 -0.05965 37965 ft 484 kts 49°
2026-05-06 07:08 42.91979 0.01113 37963 ft 483 kts 49°
2026-05-06 07:08 42.96239 0.08225 37971 ft 484 kts 49°
2026-05-06 07:09 43.00491 0.15350 37974 ft 484 kts 49°
2026-05-06 07:09 43.04748 0.22499 37979 ft 485 kts 49°
2026-05-06 07:10 43.09006 0.29665 37987 ft 486 kts 49°
2026-05-06 07:10 43.13263 0.36850 37986 ft 486 kts 49°
2026-05-06 07:11 43.17513 0.44039 37978 ft 486 kts 49°
2026-05-06 07:11 43.21761 0.51242 37976 ft 486 kts 50°
2026-05-06 07:12 43.26005 0.58456 37977 ft 486 kts 50°
2026-05-06 07:12 43.30240 0.65673 37979 ft 486 kts 50°
2026-05-06 07:13 43.34470 0.72899 37979 ft 485 kts 50°
2026-05-06 07:13 43.38695 0.80134 37973 ft 485 kts 50°
2026-05-06 07:14 43.42909 0.87367 37968 ft 484 kts 50°
2026-05-06 07:14 43.47116 0.94608 37967 ft 484 kts 50°
2026-05-06 07:15 43.51316 1.01854 37964 ft 484 kts 50°
2026-05-06 07:15 43.55505 1.09099 37963 ft 483 kts 50°
2026-05-06 07:16 43.59688 1.16352 37961 ft 483 kts 50°
2026-05-06 07:16 43.63863 1.23609 37959 ft 483 kts 50°
2026-05-06 07:17 43.68029 1.30865 37960 ft 482 kts 50°
2026-05-06 07:17 43.72045 1.38225 37959 ft 482 kts 53°
2026-05-06 07:18 43.75994 1.45724 37956 ft 482 kts 53°
2026-05-06 07:18 43.79964 1.53216 37954 ft 482 kts 53°
2026-05-06 07:19 43.83937 1.60699 37952 ft 483 kts 53°
2026-05-06 07:19 43.87916 1.68209 37960 ft 484 kts 53°
2026-05-06 07:20 43.91866 1.75683 37962 ft 484 kts 53°
2026-05-06 07:20 43.95841 1.83225 37961 ft 484 kts 53°
2026-05-06 07:21 43.99694 1.90892 37953 ft 484 kts 55°
2026-05-06 07:21 44.03505 1.98612 37954 ft 484 kts 55°
2026-05-06 07:22 44.07326 2.06322 37953 ft 484 kts 55°
2026-05-06 07:22 44.11145 2.14030 37953 ft 485 kts 55°
2026-05-06 07:23 44.14968 2.21765 37951 ft 484 kts 55°
2026-05-06 07:23 44.18780 2.29498 37951 ft 484 kts 55°
2026-05-06 07:24 44.21944 2.35933 37946 ft 484 kts 55°
2026-05-06 07:24 44.25747 2.43685 37944 ft 484 kts 55°
2026-05-06 07:25 44.29535 2.51429 37934 ft 478 kts 56°
2026-05-06 07:25 44.31374 2.55197 37937 ft 461 kts 56°
2026-05-06 07:25 44.33146 2.58831 37936 ft 445 kts 56°
2026-05-06 07:26 44.36597 2.65923 37939 ft 445 kts 56°
2026-05-06 07:26 44.40103 2.73143 37936 ft 451 kts 56°
2026-05-06 07:27 44.43610 2.80384 37936 ft 449 kts 56°
2026-05-06 07:27 44.47111 2.87631 37936 ft 449 kts 56°
2026-05-06 07:28 44.50604 2.94881 37931 ft 449 kts 56°
2026-05-06 07:28 44.55842 3.05786 37937 ft 450 kts 56°
2026-05-06 07:29 44.59333 3.13075 37930 ft 450 kts 56°
2026-05-06 07:29 44.62575 3.20578 37931 ft 450 kts 61°
2026-05-06 07:30 44.65650 3.28224 37927 ft 450 kts 61°
2026-05-06 07:30 44.68726 3.35874 37922 ft 450 kts 61°
2026-05-06 07:31 44.71790 3.43539 37916 ft 450 kts 61°
2026-05-06 07:31 44.74846 3.51211 37912 ft 450 kts 62°
2026-05-06 07:32 44.77898 3.58892 37903 ft 450 kts 62°
2026-05-06 07:32 44.80949 3.66591 37899 ft 450 kts 62°
2026-05-06 07:33 44.83992 3.74291 37889 ft 450 kts 62°
2026-05-06 07:33 44.87007 3.81945 37886 ft 450 kts 62°
2026-05-06 07:34 44.90041 3.89665 37884 ft 450 kts 62°
2026-05-06 07:34 44.93066 3.97385 37885 ft 450 kts 62°
2026-05-06 07:35 44.96087 4.05114 37896 ft 449 kts 62°
2026-05-06 07:35 44.99099 4.12846 37887 ft 450 kts 62°
2026-05-06 07:36 45.02112 4.20596 37883 ft 450 kts 62°
2026-05-06 07:36 45.05116 4.28348 37880 ft 450 kts 62°
2026-05-06 07:37 45.08117 4.36115 37877 ft 450 kts 62°
2026-05-06 07:37 45.11113 4.43888 37883 ft 450 kts 63°
2026-05-06 07:38 45.14108 4.51682 37884 ft 450 kts 63°
2026-05-06 07:38 45.17096 4.59481 37885 ft 451 kts 63°
2026-05-06 07:39 45.20089 4.67317 37896 ft 453 kts 63°
2026-05-06 07:39 45.23086 4.75186 37910 ft 454 kts 63°
2026-05-06 07:40 45.26079 4.83061 37907 ft 453 kts 63°
2026-05-06 07:40 45.29064 4.90941 37906 ft 453 kts 63°
2026-05-06 07:41 45.32036 4.98808 37900 ft 452 kts 63°
2026-05-06 07:41 45.35015 5.06719 37926 ft 456 kts 63°
2026-05-06 07:42 45.38005 5.14679 37884 ft 451 kts 63°
2026-05-06 07:42 45.40935 5.22503 37884 ft 449 kts 64°
2026-05-06 07:43 45.43853 5.30321 37886 ft 450 kts 64°
2026-05-06 07:43 45.46787 5.38193 37882 ft 450 kts 63°
2026-05-06 07:44 45.50406 5.45485 37885 ft 453 kts 48°
2026-05-06 07:44 45.55006 5.51648 37879 ft 454 kts 42°
2026-05-06 07:45 45.59722 5.57675 37890 ft 456 kts 42°
2026-05-06 07:45 45.64455 5.63744 37901 ft 458 kts 42°
2026-05-06 07:46 45.69196 5.69830 37908 ft 459 kts 42°
2026-05-06 07:46 45.73944 5.75934 37904 ft 459 kts 42°
2026-05-06 07:47 45.78693 5.82034 37903 ft 459 kts 42°
2026-05-06 07:47 45.83440 5.88140 37892 ft 458 kts 42°
2026-05-06 07:48 45.88176 5.94251 37895 ft 457 kts 42°
2026-05-06 07:48 45.92900 6.00361 37894 ft 457 kts 42°
2026-05-06 07:49 45.97624 6.06487 37895 ft 457 kts 42°
2026-05-06 07:49 46.02339 6.12615 37893 ft 456 kts 42°
2026-05-06 07:50 46.07039 6.18738 37887 ft 456 kts 42°
2026-05-06 07:50 46.11675 6.24941 37866 ft 454 kts 45°
2026-05-06 07:51 46.16114 6.31332 37865 ft 453 kts 45°
2026-05-06 07:51 46.20573 6.37737 37862 ft 452 kts 45°
2026-05-06 07:52 46.25039 6.44118 37855 ft 451 kts 45°
2026-05-06 07:52 46.29491 6.50483 37848 ft 449 kts 45°
2026-05-06 07:53 46.33918 6.56829 37840 ft 448 kts 45°
2026-05-06 07:53 46.38334 6.63173 37831 ft 447 kts 45°
2026-05-06 07:54 46.42736 6.69512 37828 ft 446 kts 45°
2026-05-06 07:54 46.47141 6.75872 37836 ft 447 kts 46°
2026-05-06 07:55 46.51541 6.82240 37833 ft 447 kts 46°
2026-05-06 07:55 46.55661 6.88265 37836 ft 447 kts 49°
2026-05-06 07:56 46.59592 6.95256 37833 ft 447 kts 52°
2026-05-06 07:56 46.63508 7.02289 37831 ft 448 kts 52°
2026-05-06 07:57 46.67419 7.09337 37823 ft 447 kts 53°
2026-05-06 07:57 46.71318 7.16391 37817 ft 448 kts 53°
2026-05-06 07:58 46.75217 7.23465 37817 ft 448 kts 53°
2026-05-06 07:58 46.79122 7.30571 37825 ft 449 kts 53°
2026-05-06 07:59 46.83005 7.37650 37829 ft 450 kts 53°
2026-05-06 07:59 46.86704 7.44414 37827 ft 450 kts 53°
2026-05-06 08:00 46.90599 7.51570 37837 ft 450 kts 53°
2026-05-06 08:00 46.94494 7.58744 37847 ft 451 kts 53°
2026-05-06 08:01 46.98398 7.65951 37857 ft 452 kts 53°
2026-05-06 08:01 47.02293 7.73161 37853 ft 452 kts 53°
2026-05-06 08:02 47.06199 7.80411 37857 ft 453 kts 54°
2026-05-06 08:02 47.10100 7.87669 37851 ft 453 kts 54°
2026-05-06 08:03 47.13929 7.94991 37844 ft 450 kts 59°
2026-05-06 08:03 47.17238 8.02753 37832 ft 448 kts 60°
2026-05-06 08:04 47.20553 8.10512 37824 ft 448 kts 60°
2026-05-06 08:04 47.23857 8.18275 37810 ft 447 kts 60°
2026-05-06 08:05 47.27149 8.26039 37804 ft 447 kts 60°
2026-05-06 08:05 47.31098 8.33106 37788 ft 451 kts 40°
2026-05-06 08:06 47.33681 8.35722 37784 ft 451 kts 27°
2026-05-06 08:06 47.36499 8.37748 37779 ft 451 kts 25°
2026-05-06 08:06 47.42182 8.41754 37791 ft 453 kts 25°
2026-05-06 08:07 47.47813 8.45747 37799 ft 454 kts 25°
2026-05-06 08:07 47.53567 8.49836 37806 ft 455 kts 25°
2026-05-06 08:08 47.59251 8.53882 37810 ft 457 kts 25°
2026-05-06 08:08 47.64987 8.57977 37822 ft 459 kts 25°
2026-05-06 08:09 47.70692 8.62060 37824 ft 460 kts 25°
2026-05-06 08:09 47.76464 8.66200 37834 ft 461 kts 25°
2026-05-06 08:10 47.82251 8.70362 37837 ft 462 kts 25°
2026-05-06 08:10 47.88037 8.74533 37844 ft 462 kts 25°
2026-05-06 08:11 47.93830 8.78720 37847 ft 462 kts 25°
2026-05-06 08:11 47.99613 8.82908 37842 ft 462 kts 25°
2026-05-06 08:12 48.04412 8.86393 37838 ft 461 kts 25°
2026-05-06 08:12 48.10172 8.90585 37832 ft 460 kts 25°
2026-05-06 08:13 48.16053 8.94259 37822 ft 456 kts 14°
2026-05-06 08:13 48.22213 8.96148 37572 ft 449 kts
2026-05-06 08:14 48.25331 8.96611 36950 ft 451 kts
2026-05-06 08:14 48.28475 8.97093 36136 ft 457 kts
2026-05-06 08:14 48.31663 8.97587 35224 ft 465 kts
2026-05-06 08:14 48.34639 8.98045 34353 ft 473 kts
2026-05-06 08:15 48.37943 8.98550 33358 ft 481 kts
2026-05-06 08:15 48.41292 8.99059 32322 ft 487 kts
2026-05-06 08:15 48.44672 8.99573 31424 ft 490 kts
2026-05-06 08:15 48.48075 9.00093 30564 ft 492 kts
2026-05-06 08:16 48.51488 9.00615 29781 ft 492 kts
2026-05-06 08:16 48.54885 9.01135 29093 ft 488 kts
2026-05-06 08:16 48.58236 9.01650 28520 ft 481 kts
2026-05-06 08:16 48.61538 9.02156 27911 ft 475 kts
2026-05-06 08:17 48.64803 9.02827 27299 ft 470 kts
2026-05-06 08:17 48.68014 9.03601 26714 ft 465 kts
2026-05-06 08:17 48.71187 9.04356 26165 ft 459 kts
2026-05-06 08:17 48.74324 9.05102 25606 ft 454 kts
2026-05-06 08:18 48.77425 9.05840 25072 ft 448 kts
2026-05-06 08:18 48.80485 9.06570 24545 ft 443 kts
2026-05-06 08:18 48.83510 9.07294 24016 ft 437 kts
2026-05-06 08:18 48.86501 9.08010 23506 ft 432 kts
2026-05-06 08:19 48.89455 9.08611 22935 ft 426 kts
2026-05-06 08:19 48.92391 9.09015 22319 ft 421 kts
2026-05-06 08:19 48.95293 9.09426 21707 ft 417 kts
2026-05-06 08:19 48.98175 9.09837 21111 ft 413 kts
2026-05-06 08:20 49.01025 9.10245 20526 ft 409 kts
2026-05-06 08:20 49.03845 9.10648 19965 ft 406 kts
2026-05-06 08:20 49.06645 9.11047 19394 ft 402 kts
2026-05-06 08:20 49.09420 9.11442 18835 ft 399 kts
2026-05-06 08:21 49.12166 9.11832 18294 ft 395 kts
2026-05-06 08:21 49.14897 9.12222 17704 ft 392 kts
2026-05-06 08:21 49.17597 9.12608 17091 ft 389 kts
2026-05-06 08:21 49.20282 9.12993 16494 ft 386 kts
2026-05-06 08:22 49.22940 9.13375 15898 ft 384 kts
2026-05-06 08:22 49.25600 9.13757 15320 ft 381 kts
2026-05-06 08:22 49.28232 9.14174 14754 ft 379 kts
2026-05-06 08:22 49.30807 9.15011 14199 ft 378 kts 12°
2026-05-06 08:23 49.33322 9.15912 13685 ft 375 kts 12°
2026-05-06 08:23 49.35857 9.16810 13107 ft 373 kts 12°
2026-05-06 08:23 49.38371 9.17698 12592 ft 368 kts 12°
2026-05-06 08:23 49.40856 9.18577 12070 ft 365 kts 12°
2026-05-06 08:24 49.43319 9.19451 11562 ft 362 kts 11°
2026-05-06 08:24 49.45758 9.20318 11033 ft 358 kts 11°
2026-05-06 08:24 49.48178 9.21180 10541 ft 355 kts 11°
2026-05-06 08:24 49.50568 9.22031 10135 ft 349 kts 11°
2026-05-06 08:25 49.52894 9.22862 9994 ft 335 kts 11°
2026-05-06 08:25 49.55120 9.23659 9873 ft 321 kts 11°
2026-05-06 08:25 49.57252 9.24422 9744 ft 309 kts 11°
2026-05-06 08:25 49.59328 9.25164 9402 ft 304 kts 11°
2026-05-06 08:26 49.61371 9.25892 9064 ft 300 kts 11°
2026-05-06 08:26 49.63397 9.26616 8678 ft 297 kts 11°
2026-05-06 08:26 49.65405 9.27335 8248 ft 295 kts 11°
2026-05-06 08:26 49.67389 9.28047 7882 ft 292 kts 11°
2026-05-06 08:27 49.69366 9.28756 7493 ft 290 kts 11°
2026-05-06 08:27 49.71333 9.29465 7089 ft 290 kts 11°
2026-05-06 08:27 49.73282 9.30166 6768 ft 286 kts 11°
2026-05-06 08:27 49.75221 9.30863 6372 ft 285 kts 11°
2026-05-06 08:28 49.77139 9.31554 5962 ft 281 kts 11°
2026-05-06 08:28 49.79046 9.32240 5556 ft 281 kts 10°
2026-05-06 08:28 49.80934 9.32959 5193 ft 279 kts 11°
2026-05-06 08:28 49.82807 9.33648 5045 ft 278 kts 11°
2026-05-06 08:29 49.84700 9.34330 5012 ft 278 kts 11°
2026-05-06 08:29 49.86581 9.35022 5007 ft 278 kts 11°
2026-05-06 08:29 49.88459 9.35725 5008 ft 278 kts 11°
2026-05-06 08:29 49.90338 9.36439 5007 ft 278 kts 11°
2026-05-06 08:30 49.92211 9.37153 5009 ft 278 kts 11°
2026-05-06 08:30 49.94093 9.37872 5011 ft 279 kts 11°
2026-05-06 08:30 49.95983 9.38592 5005 ft 280 kts 11°
2026-05-06 08:30 49.97869 9.39313 5007 ft 279 kts 11°
2026-05-06 08:31 49.99755 9.40035 5009 ft 279 kts 11°
2026-05-06 08:31 50.01653 9.40496 5012 ft 275 kts 360°
2026-05-06 08:31 50.03567 9.40547 5008 ft 276 kts 356°
2026-05-06 08:31 50.05483 9.40523 5007 ft 274 kts 356°
2026-05-06 08:32 50.07390 9.40504 5006 ft 274 kts 357°
2026-05-06 08:32 50.09302 9.40510 5007 ft 276 kts 357°
2026-05-06 08:32 50.11216 9.40533 5010 ft 276 kts 358°
2026-05-06 08:32 50.13132 9.40571 5007 ft 274 kts 357°
2026-05-06 08:33 50.15045 9.40613 5007 ft 276 kts 358°
2026-05-06 08:33 50.16933 9.40657 5004 ft 264 kts 358°
2026-05-06 08:33 50.18725 9.40702 5009 ft 251 kts 358°
2026-05-06 08:33 50.20423 9.40744 5000 ft 238 kts 358°
2026-05-06 08:34 50.22009 9.40525 4997 ft 219 kts 337°
2026-05-06 08:34 50.23896 9.37289 5002 ft 204 kts 276°
2026-05-06 08:34 50.23780 9.35119 5009 ft 202 kts 250°
2026-05-06 08:35 50.23293 9.33061 5006 ft 201 kts 249°
2026-05-06 08:35 50.22811 9.31017 5002 ft 201 kts 249°
2026-05-06 08:35 50.22328 9.28951 5009 ft 203 kts 250°
2026-05-06 08:35 50.21855 9.26899 5000 ft 198 kts 249°
2026-05-06 08:36 50.21386 9.24859 5002 ft 202 kts 249°
2026-05-06 08:36 50.20914 9.22807 5004 ft 200 kts 249°
2026-05-06 08:36 50.20449 9.20789 5000 ft 200 kts 249°
2026-05-06 08:36 50.19975 9.18743 5003 ft 201 kts 249°
2026-05-06 08:37 50.19498 9.16678 5002 ft 200 kts 249°
2026-05-06 08:37 50.19062 9.14606 5001 ft 202 kts 252°
2026-05-06 08:37 50.18613 9.12408 5007 ft 221 kts 251°
2026-05-06 08:37 50.18103 9.10149 4998 ft 221 kts 249°
2026-05-06 08:38 50.17568 9.07896 4995 ft 220 kts 249°
2026-05-06 08:38 50.17036 9.05654 4999 ft 222 kts 249°
2026-05-06 08:38 50.16496 9.03380 5002 ft 223 kts 249°
2026-05-06 08:38 50.15958 9.01115 5000 ft 222 kts 249°
2026-05-06 08:39 50.15421 8.98855 5002 ft 223 kts 249°
2026-05-06 08:39 50.14879 8.96580 5000 ft 224 kts 249°
2026-05-06 08:39 50.14341 8.94313 5002 ft 223 kts 249°
2026-05-06 08:39 50.13799 8.92035 5001 ft 225 kts 249°
2026-05-06 08:40 50.13261 8.89774 4998 ft 221 kts 249°
2026-05-06 08:40 50.12723 8.87513 5000 ft 220 kts 249°
2026-05-06 08:40 50.12209 8.85355 4921 ft 208 kts 249°
2026-05-06 08:40 50.11711 8.83262 4656 ft 206 kts 249°
2026-05-06 08:41 50.11220 8.81200 4361 ft 205 kts 249°
2026-05-06 08:41 50.10726 8.79125 4050 ft 204 kts 249°
2026-05-06 08:41 50.10297 8.77326 3807 ft 198 kts 249°
2026-05-06 08:41 50.09834 8.75381 3515 ft 185 kts 249°
2026-05-06 08:42 50.09405 8.73580 3297 ft 168 kts 249°
2026-05-06 08:42 50.09014 8.71940 3061 ft 156 kts 249°
2026-05-06 08:42 50.08649 8.70407 2826 ft 145 kts 249°
2026-05-06 08:42 50.08313 8.69001 2636 ft 131 kts 248°
2026-05-06 08:43 50.08013 8.67742 2444 ft 118 kts 248°
2026-05-06 08:43 50.07723 8.66528 2275 ft 119 kts 248°
2026-05-06 08:43 50.07433 8.65311 2102 ft 120 kts 248°
2026-05-06 08:43 50.07144 8.64100 1930 ft 119 kts 248°
2026-05-06 08:44 50.06854 8.62886 1760 ft 120 kts 248°
2026-05-06 08:44 50.06565 8.61673 1588 ft 120 kts 247°
2026-05-06 08:44 50.06274 8.60456 1417 ft 120 kts 248°
2026-05-06 08:44 50.05986 8.59244 1249 ft 119 kts 246°
2026-05-06 08:45 50.05691 8.58013 1068 ft 122 kts 248°
2026-05-06 08:45 50.05398 8.56783 892 ft 119 kts 247°
2026-05-06 08:45 50.05108 8.55571 730 ft 122 kts 246°
2026-05-06 08:45 50.04812 8.54343 526 ft 119 kts 245°
2026-05-06 08:46 50.04522 8.53142 381 ft 121 kts 246°
2026-05-06 08:46 50.04262 8.52038 350 ft 87 kts 249°
2026-05-06 08:46 50.04103 8.51376 336 ft 48 kts 250°
2026-05-06 08:46 50.04001 8.51065 326 ft 21 kts 231°
2026-05-06 08:47 50.03908 8.50926 325 ft 13 kts 219°
2026-05-06 08:47 50.03904 8.50920 325 ft 0 kts 219°
2026-05-06 08:47 50.03898 8.50913 326 ft 4 kts 219°
2026-05-06 08:48 50.03849 8.50852 325 ft 13 kts 214°
2026-05-06 08:48 50.03768 8.50907 328 ft 9 kts 100°
2026-05-06 08:48 50.03808 8.51039 331 ft 19 kts 66°
2026-05-06 08:48 50.03858 8.51247 331 ft 22 kts 68°
2026-05-06 08:49 50.03910 8.51470 332 ft 21 kts 70°
2026-05-06 08:49 50.03961 8.51685 336 ft 22 kts 70°
2026-05-06 08:49 50.04017 8.51914 346 ft 23 kts 69°
2026-05-06 08:49 50.04077 8.52163 348 ft 26 kts 69°
2026-05-06 08:50 50.04141 8.52425 351 ft 24 kts 70°
2026-05-06 08:50 50.04195 8.52660 353 ft 23 kts 69°
2026-05-06 08:50 50.04254 8.52897 359 ft 23 kts 69°
2026-05-06 08:50 50.04311 8.53136 358 ft 25 kts 69°
2026-05-06 08:51 50.04373 8.53381 366 ft 25 kts 68°
2026-05-06 08:51 50.04407 8.53646 366 ft 27 kts 82°
2026-05-06 08:51 50.04428 8.53998 374 ft 35 kts 84°
2026-05-06 08:51 50.04450 8.54338 357 ft 29 kts 85°
2026-05-06 08:52 50.04444 8.54530 354 ft 19 kts 105°
2026-05-06 08:52 50.04364 8.54720 349 ft 22 kts 138°
2026-05-06 08:52 50.04333 8.54753 350 ft 0 kts 150°
2026-05-06 08:53 50.04305 8.54776 357 ft 12 kts 154°
2026-05-06 08:53 50.04196 8.54838 352 ft 20 kts 161°
2026-05-06 08:53 50.04063 8.54914 356 ft 15 kts 159°
2026-05-06 08:53 50.04024 8.55037 353 ft 15 kts 73°
2026-05-06 08:54 50.04063 8.55202 357 ft 17 kts 70°
2026-05-06 08:54 50.04108 8.55395 357 ft 21 kts 71°
2026-05-06 08:54 50.04164 8.55627 357 ft 24 kts 69°
2026-05-06 08:54 50.04226 8.55883 360 ft 26 kts 69°
2026-05-06 08:55 50.04288 8.56141 357 ft 26 kts 70°
2026-05-06 08:55 50.04350 8.56403 359 ft 25 kts 70°
2026-05-06 08:55 50.04405 8.56634 362 ft 20 kts 70°
2026-05-06 08:55 50.04447 8.56807 362 ft 15 kts 68°
2026-05-06 08:56 50.04538 8.56887 360 ft 16 kts 14°
2026-05-06 08:56 50.04603 8.56911 362 ft 14 kts 13°
2026-05-06 08:56 50.04740 8.56999 362 ft 14 kts 22°
2026-05-06 08:56 50.04794 8.57035 363 ft 12 kts 24°
2026-05-06 08:57 50.04844 8.57089 365 ft 6 kts 89°
2026-05-06 08:57 50.04822 8.57154 364 ft 7 kts 115°
2026-05-06 08:57 50.04811 8.57189 365 ft 0 kts 115°